EZY343 EGPH-EGAC

Flight info

Callsign EZY343
Flight time 0h 29m
Altitude 18000
Route GOSAM P600 BLACA DCT MAGEE
Aircraft A320/M-SDE3FGHIRWY/LB1

Departure

Time 2026-05-01 09:01
Airport Edinburgh Airport (EGPH)

Arrival

Time 2026-05-01 09:30
Airport George Best Belfast City Airport (EGAC)
Time Latitude Longitude Altitude Speed Heading
2026-05-01 08:39 55.94944 -3.36360 89 ft 0 kts 149°
2026-05-01 08:53 55.94957 -3.36374 112 ft 3 kts 149°
2026-05-01 08:54 55.94976 -3.36394 114 ft 3 kts 145°
2026-05-01 08:54 55.94993 -3.36419 112 ft 3 kts 121°
2026-05-01 08:54 55.94998 -3.36446 112 ft 1 kts 59°
2026-05-01 08:54 55.94997 -3.36447 112 ft 0 kts 59°
2026-05-01 08:56 55.95001 -3.36437 115 ft 3 kts 59°
2026-05-01 08:56 55.95024 -3.36390 112 ft 5 kts 26°
2026-05-01 08:57 55.95065 -3.36400 114 ft 8 kts 349°
2026-05-01 08:57 55.95121 -3.36320 113 ft 13 kts 58°
2026-05-01 08:57 55.95169 -3.36179 114 ft 13 kts 59°
2026-05-01 08:57 55.95214 -3.36044 116 ft 12 kts 59°
2026-05-01 08:58 55.95256 -3.35918 115 ft 11 kts 58°
2026-05-01 08:58 55.95295 -3.35804 116 ft 11 kts 59°
2026-05-01 08:58 55.95355 -3.35628 115 ft 20 kts 58°
2026-05-01 08:58 55.95426 -3.35422 113 ft 14 kts 52°
2026-05-01 08:59 55.95492 -3.35435 113 ft 4 kts 329°
2026-05-01 08:59 55.95516 -3.35460 114 ft 6 kts 329°
2026-05-01 08:59 55.95570 -3.35521 113 ft 9 kts 315°
2026-05-01 08:59 55.95564 -3.35578 113 ft 0 kts 243°
2026-05-01 09:00 55.95503 -3.35760 113 ft 52 kts 239°
2026-05-01 09:00 55.95190 -3.36688 114 ft 118 kts 239°
2026-05-01 09:00 55.94683 -3.38212 208 ft 159 kts 240°
2026-05-01 09:01 55.94129 -3.39880 851 ft 156 kts 239°
2026-05-01 09:01 55.93549 -3.41538 1495 ft 162 kts 237°
2026-05-01 09:01 55.92902 -3.43376 1835 ft 188 kts 237°
2026-05-01 09:01 55.92179 -3.45459 2254 ft 209 kts 237°
2026-05-01 09:02 55.91375 -3.47790 2788 ft 233 kts 238°
2026-05-01 09:02 55.90516 -3.50397 3460 ft 254 kts 244°
2026-05-01 09:02 55.90059 -3.53490 4329 ft 260 kts 257°
2026-05-01 09:02 55.89754 -3.56695 5309 ft 265 kts 258°
2026-05-01 09:03 55.89460 -3.59969 5799 ft 267 kts 258°
2026-05-01 09:03 55.89167 -3.63221 5956 ft 265 kts 257°
2026-05-01 09:03 55.88868 -3.66458 5980 ft 264 kts 257°
2026-05-01 09:03 55.88559 -3.69681 5987 ft 264 kts 257°
2026-05-01 09:04 55.88246 -3.72853 5986 ft 264 kts 257°
2026-05-01 09:04 55.87923 -3.76065 5980 ft 264 kts 257°
2026-05-01 09:04 55.87598 -3.79282 5985 ft 264 kts 257°
2026-05-01 09:04 55.87277 -3.82500 5987 ft 264 kts 257°
2026-05-01 09:05 55.86959 -3.85711 6016 ft 263 kts 257°
2026-05-01 09:05 55.86639 -3.88930 6125 ft 264 kts 257°
2026-05-01 09:05 55.86319 -3.92149 6172 ft 264 kts 257°
2026-05-01 09:05 55.86001 -3.95332 6708 ft 261 kts 256°
2026-05-01 09:06 55.85677 -3.98539 7413 ft 265 kts 256°
2026-05-01 09:06 55.85349 -4.01795 8157 ft 269 kts 256°
2026-05-01 09:06 55.85018 -4.05090 8923 ft 273 kts 256°
2026-05-01 09:06 55.84679 -4.08429 9713 ft 276 kts 254°
2026-05-01 09:07 55.84063 -4.11669 10384 ft 278 kts 240°
2026-05-01 09:07 55.83001 -4.14497 10975 ft 275 kts 225°
2026-05-01 09:07 55.81573 -4.16755 11604 ft 276 kts 212°
2026-05-01 09:07 55.79954 -4.18698 12159 ft 287 kts 212°
2026-05-01 09:08 55.78277 -4.20727 12593 ft 304 kts 213°
2026-05-01 09:08 55.76496 -4.22922 12980 ft 318 kts 213°
2026-05-01 09:08 55.74669 -4.25200 13376 ft 323 kts 213°
2026-05-01 09:08 55.72827 -4.27506 13819 ft 325 kts 213°
2026-05-01 09:09 55.70970 -4.29832 14308 ft 328 kts 213°
2026-05-01 09:09 55.69100 -4.32168 14787 ft 331 kts 213°
2026-05-01 09:09 55.67205 -4.34524 15434 ft 334 kts 213°
2026-05-01 09:09 55.65293 -4.36886 16091 ft 336 kts 213°
2026-05-01 09:10 55.63366 -4.39262 16756 ft 339 kts 213°
2026-05-01 09:10 55.61423 -4.41656 17410 ft 342 kts 213°
2026-05-01 09:10 55.59459 -4.44074 17988 ft 346 kts 213°
2026-05-01 09:10 55.57484 -4.46507 18136 ft 344 kts 213°
2026-05-01 09:11 55.55562 -4.48875 18160 ft 332 kts 213°
2026-05-01 09:11 55.53674 -4.51196 18166 ft 329 kts 213°
2026-05-01 09:11 55.51799 -4.53498 18163 ft 328 kts 213°
2026-05-01 09:11 55.49924 -4.55789 18171 ft 328 kts 213°
2026-05-01 09:12 55.48048 -4.58074 18163 ft 328 kts 213°
2026-05-01 09:12 55.46174 -4.60359 18165 ft 328 kts 213°
2026-05-01 09:12 55.44300 -4.62645 18168 ft 328 kts 213°
2026-05-01 09:12 55.42426 -4.64928 18167 ft 328 kts 213°
2026-05-01 09:13 55.40553 -4.67205 18165 ft 327 kts 213°
2026-05-01 09:13 55.38703 -4.69455 18161 ft 328 kts 213°
2026-05-01 09:13 55.36822 -4.71734 18172 ft 328 kts 213°
2026-05-01 09:13 55.34940 -4.74011 18172 ft 328 kts 213°
2026-05-01 09:14 55.33060 -4.76285 18165 ft 328 kts 213°
2026-05-01 09:14 55.31166 -4.78498 18163 ft 327 kts 208°
2026-05-01 09:14 55.29159 -4.80316 17967 ft 321 kts 205°
2026-05-01 09:14 55.27179 -4.82063 17612 ft 317 kts 205°
2026-05-01 09:15 55.25219 -4.83783 17230 ft 314 kts 205°
2026-05-01 09:15 55.23276 -4.85488 16856 ft 311 kts 205°
2026-05-01 09:15 55.21349 -4.87180 16489 ft 308 kts 205°
2026-05-01 09:15 55.19439 -4.88853 16133 ft 306 kts 205°
2026-05-01 09:16 55.17539 -4.90522 15738 ft 306 kts 205°
2026-05-01 09:16 55.15638 -4.92183 15351 ft 305 kts 205°
2026-05-01 09:16 55.13737 -4.93835 14945 ft 305 kts 205°
2026-05-01 09:17 55.09948 -4.97141 14180 ft 305 kts 205°
2026-05-01 09:17 55.08053 -4.98792 13760 ft 304 kts 205°
2026-05-01 09:17 55.04284 -5.02074 12950 ft 301 kts 205°
2026-05-01 09:18 55.02420 -5.03699 12553 ft 299 kts 205°
2026-05-01 09:18 54.98706 -5.06911 11748 ft 297 kts 204°
2026-05-01 09:19 54.95017 -5.10089 11016 ft 292 kts 204°
2026-05-01 09:19 54.93227 -5.11639 10901 ft 282 kts 204°
2026-05-01 09:19 54.91497 -5.13142 10656 ft 274 kts 204°
2026-05-01 09:20 54.88462 -5.16940 9650 ft 271 kts 229°
2026-05-01 09:20 54.86906 -5.22926 8606 ft 273 kts 246°
2026-05-01 09:21 54.85697 -5.28932 7688 ft 257 kts 246°
2026-05-01 09:21 54.85114 -5.31804 7309 ft 248 kts 246°
2026-05-01 09:21 54.83991 -5.37307 6440 ft 236 kts 245°
2026-05-01 09:22 54.82914 -5.42542 5674 ft 227 kts 245°
2026-05-01 09:22 54.81840 -5.47776 4923 ft 233 kts 246°
2026-05-01 09:23 54.81298 -5.50412 4521 ft 230 kts 246°
2026-05-01 09:23 54.80255 -5.55498 3793 ft 218 kts 246°
2026-05-01 09:24 54.79250 -5.60367 3091 ft 213 kts 246°
2026-05-01 09:24 54.78756 -5.62738 3009 ft 203 kts 245°
2026-05-01 09:24 54.77835 -5.67001 3014 ft 174 kts 237°
2026-05-01 09:25 54.76188 -5.69976 3014 ft 173 kts 212°
2026-05-01 09:25 54.74222 -5.72355 3016 ft 173 kts 212°
2026-05-01 09:26 54.73279 -5.73490 3014 ft 159 kts 212°
2026-05-01 09:26 54.71496 -5.75635 3009 ft 153 kts 211°
2026-05-01 09:26 54.70645 -5.76737 2670 ft 151 kts 214°
2026-05-01 09:27 54.69023 -5.78816 1880 ft 141 kts 209°
2026-05-01 09:27 54.68198 -5.79679 1509 ft 137 kts 207°
2026-05-01 09:27 54.67416 -5.80573 1288 ft 133 kts 209°
2026-05-01 09:28 54.66650 -5.81471 1067 ft 134 kts 210°
2026-05-01 09:28 54.65883 -5.82380 854 ft 134 kts 212°
2026-05-01 09:28 54.65106 -5.83306 676 ft 136 kts 211°
2026-05-01 09:28 54.64326 -5.84239 483 ft 138 kts 212°
2026-05-01 09:29 54.62740 -5.86139 97 ft 139 kts 212°
2026-05-01 09:29 54.61970 -5.87044 23 ft 112 kts 216°
2026-05-01 09:30 54.61376 -5.87764 21 ft 24 kts 215°
2026-05-01 09:30 54.61288 -5.87733 22 ft 8 kts 124°
2026-05-01 09:30 54.61263 -5.87610 23 ft 7 kts 72°
2026-05-01 09:31 54.61346 -5.87490 23 ft 16 kts 34°
2026-05-01 09:31 54.61427 -5.87353 23 ft 17 kts 40°
2026-05-01 09:31 54.61434 -5.87219 24 ft 0 kts 126°